When you browse on this site, cookies collect data to enhance your experience and personalize the content and advertising you see.
Visit our Privacy Policy to learn more. By continuing to use the site, you agree to this use of cookies and data.
  • In Sweden
  • List of Countries
  • For 7 days
  • Water Temperature
  • Satellite Maps
  • Weather Map
  • Weather Widgets
  • user-avatar
    Login

    Hourly Weather San Pedro Sula

    Today, 16 January, Wednesday

    Time Temperature Precipitation Wind Pressure Humidity
    00:00 +22°C° 0.1 mm 1 mps 749 mmHg 97%
    01:00 +21°C° 0.1 mm 1 mps 749 mmHg 97%
    02:00 +21°C° 0.1 mm 1 mps 749 mmHg 97%
    03:00 +21°C° 0.1 mm 1 mps 748 mmHg 98%
    04:00 +21°C° 0.1 mm 1 mps 749 mmHg 97%
    05:00 +21°C° 0.1 mm 1 mps 749 mmHg 97%
    06:00 +21°C° 0.1 mm 1 mps 749 mmHg 96%
    07:00 +22°C° 0.2 mm 1 mps 749 mmHg 91%
    08:00 +21°C° 0.2 mm 0 mps 750 mmHg 87%
    09:00 +23°C° 0.2 mm 0 mps 750 mmHg 82%
    10:00 +25°C° 0.2 mm 1 mps 750 mmHg 79%
    11:00 +26°C° 0.2 mm 1 mps 750 mmHg 75%
    12:00 +27°C° 0.2 mm 2 mps 749 mmHg 72%
    13:00 +27°C° 0.5 mm 2 mps 749 mmHg 75%
    14:00 +27°C° 0.5 mm 2 mps 748 mmHg 79%
    15:00 +27°C° 0.5 mm 2 mps 748 mmHg 82%
    16:00 +25°C° 0.4 mm 2 mps 748 mmHg 87%
    17:00 +24°C° 0.4 mm 1 mps 748 mmHg 92%
    18:00 +23°C° 0.4 mm 1 mps 748 mmHg 96%
    19:00 +23°C° 0.5 mm 1 mps 749 mmHg 97%
    20:00 +21°C° 0.5 mm 0 mps 749 mmHg 97%
    21:00 +20°C° 0.5 mm 0 mps 749 mmHg 97%
    22:00 +20°C° 0.5 mm 0 mps 749 mmHg 97%
    23:00 +20°C° 0.5 mm 0 mps 749 mmHg 97%

    Tomorrow, 17 January, Thursday

    Time Temperature Precipitation Wind Pressure Humidity
    00:00 +20°C° 0.5 mm 0 mps 749 mmHg 97%
    01:00 +21°C° 0.9 mm 0 mps 749 mmHg 97%
    02:00 +23°C° 0.9 mm 1 mps 748 mmHg 97%
    03:00 +23°C° 0.9 mm 1 mps 748 mmHg 97%
    04:00 +23°C° 0.9 mm 1 mps 748 mmHg 97%
    05:00 +23°C° 0.9 mm 1 mps 748 mmHg 97%
    06:00 +23°C° 0.9 mm 1 mps 749 mmHg 97%
    07:00 +23°C° 1 mm 1 mps 749 mmHg 97%
    08:00 +23°C° 1 mm 1 mps 749 mmHg 97%
    09:00 +23°C° 1 mm 1 mps 750 mmHg 97%
    10:00 +23°C° 1.3 mm 1 mps 749 mmHg 97%
    11:00 +23°C° 1.3 mm 1 mps 749 mmHg 97%
    12:00 +21°C° 1.3 mm 0 mps 749 mmHg 97%
    13:00 +23°C° 1.9 mm 1 mps 748 mmHg 97%
    14:00 +23°C° 1.9 mm 1 mps 748 mmHg 97%
    15:00 +23°C° 1.9 mm 1 mps 747 mmHg 98%
    16:00 +23°C° 2.4 mm 1 mps 747 mmHg 98%
    17:00 +23°C° 2.4 mm 1 mps 747 mmHg 98%
    18:00 +23°C° 2.4 mm 1 mps 748 mmHg 98%
    19:00 +23°C° 2.4 mm 1 mps 748 mmHg 98%
    20:00 +23°C° 2.4 mm 1 mps 748 mmHg 98%
    21:00 +23°C° 2.4 mm 1 mps 749 mmHg 98%
    22:00 +23°C° 2 mm 1 mps 748 mmHg 98%
    23:00 +23°C° 2 mm 1 mps 748 mmHg 98%

    Day after tomorrow, 18 January, Friday

    Time Temperature Precipitation Wind Pressure Humidity
    00:00 +23°C° 2 mm 1 mps 748 mmHg 98%
    01:00 +23°C° 1.6 mm 1 mps 748 mmHg 98%
    02:00 +23°C° 1.6 mm 1 mps 747 mmHg 98%
    03:00 +22°C° 1.6 mm 1 mps 747 mmHg 98%
    04:00 +22°C° 1 mm 1 mps 747 mmHg 98%
    05:00 +22°C° 1 mm 1 mps 747 mmHg 98%
    06:00 +22°C° 1 mm 1 mps 747 mmHg 98%
    07:00 +23°C° 0.5 mm 1 mps 748 mmHg 96%
    08:00 +23°C° 0.5 mm 1 mps 748 mmHg 94%
    09:00 +24°C° 0.5 mm 1 mps 749 mmHg 93%
    10:00 +25°C° 0.2 mm 1 mps 748 mmHg 89%
    11:00 +25°C° 0.2 mm 1 mps 748 mmHg 85%
    12:00 +26°C° 0.2 mm 1 mps 748 mmHg 81%
    13:00 +27°C° 0.1 mm 1 mps 747 mmHg 79%
    14:00 +27°C° 0.1 mm 1 mps 746 mmHg 77%
    15:00 +28°C° 0.1 mm 1 mps 745 mmHg 75%
    16:00 +26°C° 0.1 mm 1 mps 745 mmHg 82%
    17:00 +25°C° 0.1 mm 1 mps 745 mmHg 89%
    18:00 +24°C° 0.1 mm 1 mps 746 mmHg 95%
    19:00 +23°C° 0.1 mm 1 mps 746 mmHg 96%
    20:00 +21°C° 0.1 mm 0 mps 746 mmHg 97%
    21:00 +21°C° 0.1 mm 0 mps 747 mmHg 98%
    22:00 +21°C° 0 mm 0 mps 747 mmHg 98%
    23:00 +21°C° 0 mm 0 mps 746 mmHg 98%

    19 January, Saturday

    Time Temperature Precipitation Wind Pressure Humidity
    00:00 +21°C° 0 mm 0 mps 746 mmHg 98%
    01:00 +20°C° 0 mm 0 mps 746 mmHg 98%
    02:00 +20°C° 0 mm 0 mps 745 mmHg 98%
    03:00 +20°C° 0 mm 0 mps 745 mmHg 98%
    04:00 +20°C° 0 mm 0 mps 745 mmHg 98%
    05:00 +20°C° 0 mm 0 mps 745 mmHg 98%
    06:00 +20°C° 0 mm 0 mps 745 mmHg 98%
    07:00 +21°C° 0 mm 0 mps 746 mmHg 91%
    08:00 +25°C° 0 mm 1 mps 746 mmHg 85%
    09:00 +27°C° 0 mm 1 mps 746 mmHg 79%
    10:00 +29°C° 0 mm 1 mps 746 mmHg 69%
    11:00 +31°C° 0 mm 1 mps 745 mmHg 59%
    12:00 +33°C° 0 mm 1 mps 744 mmHg 50%
    13:00 +33°C° 0 mm 1 mps 743 mmHg 51%
    14:00 +32°C° 0 mm 2 mps 743 mmHg 53%
    15:00 +32°C° 0 mm 2 mps 742 mmHg 54%
    16:00 +30°C° 0 mm 2 mps 742 mmHg 67%
    17:00 +28°C° 0 mm 2 mps 742 mmHg 79%
    18:00 +25°C° 0 mm 1 mps 743 mmHg 92%
    19:00 +25°C° 0 mm 1 mps 744 mmHg 94%
    20:00 +22°C° 0 mm 0 mps 744 mmHg 96%
    21:00 +21°C° 0 mm 0 mps 745 mmHg 98%
    22:00 +21°C° 0 mm 0 mps 745 mmHg 98%
    23:00 +21°C° 0 mm 0 mps 745 mmHg 98%

    20 January, Sunday

    Time Temperature Precipitation Wind Pressure Humidity
    00:00 +23°C° 0 mm 1 mps 745 mmHg 97%
    01:00 +23°C° 0 mm 1 mps 745 mmHg 97%
    02:00 +23°C° 0 mm 1 mps 745 mmHg 97%
    03:00 +23°C° 0 mm 1 mps 745 mmHg 96%
    04:00 +23°C° 0 mm 1 mps 746 mmHg 96%
    05:00 +23°C° 0 mm 1 mps 746 mmHg 95%
    06:00 +23°C° 0 mm 1 mps 747 mmHg 95%
    07:00 +24°C° 0.3 mm 1 mps 748 mmHg 90%
    08:00 +25°C° 0.3 mm 1 mps 748 mmHg 86%
    09:00 +26°C° 0.3 mm 1 mps 749 mmHg 81%
    10:00 +27°C° 1.1 mm 2 mps 749 mmHg 82%
    11:00 +27°C° 1.1 mm 2 mps 749 mmHg 83%
    12:00 +27°C° 1.1 mm 2 mps 749 mmHg 84%
    13:00 +26°C° 1.5 mm 3 mps 748 mmHg 87%
    14:00 +25°C° 1.5 mm 3 mps 748 mmHg 89%
    15:00 +24°C° 1.5 mm 3 mps 748 mmHg 92%
    16:00 +21°C° 1.3 mm 3 mps 749 mmHg 93%
    17:00 +20°C° 1.3 mm 2 mps 749 mmHg 95%
    18:00 +19°C° 1.3 mm 2 mps 750 mmHg 96%
    19:00 +18°C° 0.4 mm 2 mps 750 mmHg 96%
    20:00 +18°C° 0.4 mm 2 mps 751 mmHg 96%
    21:00 +19°C° 0.4 mm 1 mps 752 mmHg 96%
    22:00 +19°C° 0.1 mm 1 mps 752 mmHg 96%
    23:00 +19°C° 0.1 mm 1 mps 752 mmHg 95%

    21 January, Monday

    Time Temperature Precipitation Wind Pressure Humidity
    00:00 +19°C° 0.1 mm 1 mps 752 mmHg 95%
    01:00 +19°C° 0 mm 1 mps 751 mmHg 94%
    02:00 +18°C° 0 mm 1 mps 751 mmHg 94%
    03:00 +18°C° 0 mm 1 mps 751 mmHg 93%
    04:00 +18°C° 0.1 mm 1 mps 751 mmHg 93%
    05:00 +18°C° 0.1 mm 1 mps 751 mmHg 92%
    06:00 +18°C° 0.1 mm 1 mps 752 mmHg 92%
    07:00 +18°C° 0.1 mm 1 mps 752 mmHg 91%
    08:00 +19°C° 0.1 mm 1 mps 752 mmHg 90%
    09:00 +19°C° 0.1 mm 1 mps 753 mmHg 89%
    10:00 +20°C° 0.1 mm 1 mps 752 mmHg 84%
    11:00 +21°C° 0.1 mm 1 mps 752 mmHg 79%
    12:00 +21°C° 0.1 mm 1 mps 751 mmHg 74%
    13:00 +22°C° 0 mm 1 mps 750 mmHg 70%
    14:00 +22°C° 0 mm 1 mps 749 mmHg 67%
    15:00 +23°C° 0 mm 1 mps 748 mmHg 64%
    16:00 +22°C° 0 mm 1 mps 749 mmHg 70%
    17:00 +20°C° 0 mm 1 mps 749 mmHg 76%
    18:00 +17°C° 0 mm 0 mps 749 mmHg 82%
    19:00 +16°C° 0 mm 0 mps 749 mmHg 85%
    20:00 +16°C° 0 mm 0 mps 749 mmHg 88%
    21:00 +15°C° 0 mm 0 mps 750 mmHg 90%
    22:00 +15°C° 0 mm 0 mps 749 mmHg 91%
    23:00 +16°C° 0 mm 1 mps 749 mmHg 92%
    Show more